User: anonymous   Login
Location: Niverville
(49.6028°N, 97.0419°W)
Time: 11:40:25
(UTC-06:00)
Language:

Cosmos 2237 Rocket - Orbit

View from above orbital plane
View from above orbital plane
View from above satellite
View from above satellite

Ground track
Ground track

The orbit data is extracted from the following two-line orbital elements,

1 22566U 93016B   16337.95677832 -.00000191  00000-0 -74362-4 0  9996
2 22566  71.0060 118.8224 0008194  67.3576 292.8413 14.14938054223510
Epoch (UTC): 02 December 2016 22:57:45
Eccentricity: 0.0008194
inclination: 71.0060°
perigee height: 836 km
apogee height: 848 km
right ascension of ascending node: 118.8224°
argument of perigee: 67.3576°
revolutions per day: 14.14938054
mean anomaly at epoch: 292.8413°
orbit number at epoch: 22351

The dashed part of the orbit path shows where the satellite is in the earth's shadow,  

DLR